[[{"header":{"parameterUnit":"m.s-1","parameterCategory":1,"la1":30.2991,"la2":30.254,"lo1":-89.0895,"lo2":-89.0444,"dy":0.0017,"dx":0.0017,"nx":28,"ny":28,"refTime":"2024-05-26T21:00:00:Z","depth":0,"parameterNumber":2,"parameterNumberName":"U-component_of_WINDS"},"data":[0,0,0,0,0,0,0,0,0,0,0,0,0,0,0,0,0,0,0,0,0,0,0,0,0,0,0,0,0,0,0,0,0,0,0,0,0,0,0,0,0,0,0,0,0,0,0,0,0,0,0,0,0,0,0,0,0,0,1.776,1.7761,0,1.7868,1.7869,1.787,1.7822,1.7819,1.7817,1.7814,1.7927,1.7932,1.7938,0,0,0,0,0,0,0,0,0,0,0,0,0,1.7511,1.7516,1.7759,1.7761,1.7762,1.7868,1.7869,1.7871,1.7823,1.7819,1.7816,1.7813,1.7925,1.7932,1.7938,0,0,0,0,0,0,0,0,0,0,0,0,0,1.7619,1.7518,1.7759,1.7751,1.7751,1.7867,1.7869,1.7871,1.7823,1.7819,1.7815,1.7811,1.7923,1.7931,1.7939,1.807,0,0,1.7964,1.7968,0,0,0,0,0,0,0,0,1.7613,1.7629,1.7751,1.7752,1.7752,1.7827,1.7823,1.7938,1.7824,1.7796,1.7814,1.7809,1.7897,1.7907,1.7936,1.8076,1.808,1.7965,1.797,1.7974,1.7976,0,0,0,0,0,0,0,1.7606,1.7624,1.7802,1.7753,1.7753,1.7742,1.7753,1.7844,1.7868,1.7798,1.7795,1.7808,1.7897,1.7929,1.7939,1.8082,1.7965,1.7972,1.7977,1.798,1.8333,1.8337,0,0,0,0,0,0,1.7598,1.7618,1.7799,1.7806,1.7671,1.775,1.7762,1.7807,1.7867,1.7872,1.7812,1.7806,1.7916,1.7929,1.7943,1.8099,1.7973,1.7981,1.7986,1.8329,1.8334,1.8339,0,0,0,0,0,0,1.7593,1.7615,1.7795,1.7711,1.7733,1.7758,1.781,1.7812,1.7843,1.7877,1.7881,1.784,1.7914,1.7931,1.8038,1.8103,1.7985,1.7992,1.8323,1.833,1.8336,1.8415,0,0,0,0,0,0,1.7586,1.7613,1.7664,1.7712,1.7737,1.7889,1.7814,1.7817,1.7857,1.7851,1.7904,1.7909,1.7912,1.8026,1.8047,1.8112,1.7999,1.8318,1.8326,1.8334,1.8407,1.8423,1.8437,0,0,0,0,0,1.7578,1.7682,1.7666,1.7689,1.7801,1.7893,1.7907,1.7907,1.7863,1.7913,1.7935,1.7908,1.8092,1.8038,1.806,1.8129,1.8314,1.8324,1.8334,1.84,1.842,1.8437,0,0,0,0,0,0,1.7641,1.7688,1.7672,1.7795,1.784,1.7884,1.7948,1.7929,1.7989,1.798,1.7978,1.7991,1.8102,1.8126,1.8065,1.8258,1.8196,1.8211,1.8239,1.8258,1.8273,1.8265,1.8006,0,0,0,0,0,1.767,1.774,1.7777,1.7883,1.7906,1.7923,1.7963,1.796,1.8007,1.8026,1.8055,1.8102,1.817,1.8215,1.828,1.8409,1.842,1.8467,1.8483,1.8495,1.8509,1.8578,1.8599,1.8371,1.8371,1.8371,0,0,1.7729,1.7763,1.7808,1.7896,1.7931,1.8004,1.794,1.802,1.8074,1.8038,1.8141,1.8164,1.8216,1.8335,1.8389,1.8359,1.8573,1.8508,1.8518,1.8524,1.859,1.8612,1.8631,1.8378,1.8377,1.8376,0,0,1.7874,1.7908,1.7998,1.8034,1.8087,1.8097,1.8119,1.8166,1.818,1.8283,1.8257,1.8321,1.8439,1.8477,1.8512,1.867,1.8647,1.8691,1.8772,1.884,1.8858,1.8873,1.8929,1.895,1.8704,1.8704,1.8704,0,1.7942,1.8051,1.8048,1.813,1.8169,1.8138,1.823,1.8265,1.8336,1.8364,1.8329,1.8475,1.8509,1.8635,1.8673,1.8703,1.8727,1.8685,1.8855,1.8871,1.8886,1.8939,1.896,1.8709,1.8708,1.8708,1.8708,0,1.8131,1.8206,1.8273,1.8342,1.8389,1.8476,1.8485,1.8533,1.8525,1.8539,1.8644,1.8682,1.8754,1.8783,1.8776,1.8909,1.8888,1.8854,1.8792,1.8912,1.8963,1.8983,1.8716,1.8714,1.8713,1.8712,0,0,1.8321,1.8385,1.841,1.844,1.8496,1.8554,1.8639,1.8708,1.8749,1.8799,1.887,1.8969,1.8938,1.8977,1.8974,1.9033,1.9155,1.8992,1.8993,1.9021,1.9302,1.9328,1.9352,1.914,1.9144,1.9147,1.9298,0,1.847,1.8618,1.8617,1.8754,1.8824,1.8795,1.8868,1.891,1.8925,1.8987,1.9003,1.9074,1.9027,1.9051,1.9108,1.9128,1.9212,1.9117,1.9206,1.9209,1.9194,1.9378,1.9405,1.9546,1.9318,1.9321,1.9323,0,1.8664,1.872,1.8864,1.8907,1.8936,1.9003,1.9065,1.9124,1.9171,1.9177,1.9221,1.9208,1.9294,1.9228,1.9346,1.9282,1.9318,1.9333,1.9339,1.9347,1.9274,1.9392,1.9591,1.9612,1.9354,1.9352,1.9349,0,1.8788,1.8899,1.8999,1.9026,1.9079,1.9126,1.9151,1.9193,1.9234,1.9289,1.9316,1.938,1.9415,1.9465,1.947,1.9422,1.9589,1.9524,1.9597,1.9597,1.9634,1.9631,1.9842,1.9657,1.9656,1.9656,1.9656,0,1.8955,1.9044,1.9055,1.9116,1.9215,1.9213,1.931,1.9331,1.9368,1.9433,1.9412,1.9473,1.9476,1.9539,1.9543,1.964,1.9656,1.9663,1.9664,1.9666,1.9665,1.969,1.968,1.9662,1.966,1.9659,1.9658,0,1.9111,1.9121,1.9228,1.927,1.9282,1.9353,1.9388,1.9447,1.9459,1.9542,1.9561,1.9581,1.9653,1.9663,1.9748,1.975,1.9867,1.9856,1.9851,1.985,1.9922,1.9915,2.0157,2.0188,1.9982,1.9984,1.9985,0,1.9217,1.9284,1.9333,1.9374,1.9401,1.9469,1.951,1.951,1.9554,1.9611,1.9663,1.9733,1.9789,1.9907,1.9929,1.9993,1.9984,2.0064,1.9994,1.9994,1.9985,1.9981,1.9988,2.0078,2.0081,2.0082,2.0084,0,1.9404,1.9405,1.9466,1.9528,1.9578,1.9627,1.9674,1.9709,1.9714,1.9765,1.9838,1.9882,1.9968,2.0038,2.0101,2.0126,2.0107,2.0106,2.0126,2.0129,2.0123,2.0127,1.9888,2.01,2.0099,2.0098,2.0097,2.0096,1.9538,1.9596,1.9639,1.9707,1.9741,1.9785,1.9841,1.986,1.9921,1.9991,1.9987,2.0068,2.0111,2.0194,2.0224,2.0287,2.0261,2.029,2.0298,2.0305,2.0312,2.0112,2.0299,2.0298,2.0298,2.0297,2.0297,0,1.9724,1.9749,1.9812,1.9876,1.993,1.9905,1.9954,2.0001,2.0072,2.0114,2.0169,2.0253,2.032,2.0347,2.0413,2.0458,2.045,2.0475,2.0472,2.0478,2.0332,2.0308,2.048,2.048,2.048,2.048,2.048,2.048,1.9826,1.9924,1.993,2.0044,2.0069,2.0148,2.0178,2.0218,2.0251,2.0345,2.0401,2.0417,2.0453,2.0521,2.0581,2.0587,2.0613,2.0642,2.0644,2.0507,2.0489,2.0471,2.0448,2.0647,2.0647,2.0784,2.0786,2.0787]},{"header":{"parameterUnit":"m.s-1","parameterCategory":1,"la1":30.2991,"la2":30.254,"lo1":-89.0895,"lo2":-89.0444,"dy":0.0017,"dx":0.0017,"nx":28,"ny":28,"refTime":"2024-05-26T21:00:00:Z","depth":0,"parameterNumber":3,"parameterNumberName":"V-component_of_WINDS"},"data":[0,0,0,0,0,0,0,0,0,0,0,0,0,0,0,0,0,0,0,0,0,0,0,0,0,0,0,0,0,0,0,0,0,0,0,0,0,0,0,0,0,0,0,0,0,0,0,0,0,0,0,0,0,0,0,0,0,0,4.8049,4.805,0,4.8148,4.8149,4.815,4.8102,4.8099,4.8097,4.8094,4.8187,4.8192,4.8196,0,0,0,0,0,0,0,0,0,0,0,0,0,4.7811,4.7815,4.8049,4.8051,4.8052,4.8148,4.8149,4.815,4.8102,4.8099,4.8096,4.8093,4.8185,4.8191,4.8197,0,0,0,0,0,0,0,0,0,0,0,0,0,4.7912,4.7817,4.8049,4.804,4.804,4.8147,4.8149,4.8151,4.8103,4.8099,4.8095,4.8092,4.8184,4.8191,4.8198,4.8318,0,0,4.822,4.8223,0,0,0,0,0,0,0,0,4.7906,4.7921,4.804,4.804,4.8041,4.8109,4.8099,4.8206,4.8104,4.8079,4.8094,4.809,4.8163,4.8172,4.8199,4.8322,4.8326,4.822,4.8225,4.8228,4.823,0,0,0,0,0,0,0,4.7899,4.7916,4.8088,4.8041,4.8042,4.8027,4.8038,4.8119,4.8141,4.8081,4.8077,4.809,4.8163,4.8192,4.82,4.8327,4.822,4.8227,4.8231,4.8234,4.8552,4.8556,0,0,0,0,0,0,4.7894,4.7911,4.8085,4.8091,4.7963,4.8035,4.8046,4.8091,4.814,4.8144,4.8093,4.8088,4.8181,4.8192,4.8203,4.8346,4.8228,4.8235,4.8239,4.8548,4.8553,4.8557,0,0,0,0,0,0,4.7889,4.791,4.8081,4.8,4.8021,4.8043,4.8093,4.8095,4.8123,4.815,4.8152,4.8119,4.8179,4.8193,4.829,4.8349,4.8238,4.8244,4.8543,4.8549,4.8555,4.8633,0,0,0,0,0,0,4.7882,4.7908,4.7957,4.8002,4.8025,4.8169,4.8097,4.8099,4.8137,4.813,4.8175,4.8178,4.8177,4.8279,4.8297,4.8357,4.825,4.8538,4.8546,4.8553,4.8625,4.8641,4.8655,0,0,0,0,0,4.7874,4.7973,4.7959,4.7981,4.8086,4.8172,4.8185,4.8184,4.8142,4.8189,4.8205,4.8177,4.834,4.829,4.8309,4.8372,4.8534,4.8543,4.8552,4.8619,4.8638,4.8655,0,0,0,0,0,0,4.7932,4.7979,4.7964,4.8082,4.8124,4.8164,4.8223,4.8205,4.8257,4.8249,4.8242,4.8253,4.8353,4.8372,4.8315,4.8489,4.843,4.8443,4.8474,4.8492,4.8507,4.8499,4.8256,0,0,0,0,0,4.7959,4.8027,4.8064,4.8163,4.8186,4.8201,4.8238,4.8234,4.8276,4.8293,4.8316,4.8356,4.8415,4.8455,4.8511,4.8628,4.8635,4.868,4.8695,4.8707,4.8718,4.878,4.8799,4.8588,4.8588,4.8587,0,0,4.8014,4.8048,4.8091,4.8176,4.8208,4.8276,4.8216,4.8291,4.8341,4.8303,4.8396,4.8415,4.8458,4.8565,4.8613,4.8584,4.8779,4.8719,4.8728,4.8733,4.8791,4.8811,4.8829,4.8594,4.8593,4.8592,0,0,4.8149,4.8183,4.827,4.8304,4.8354,4.8363,4.8384,4.8428,4.8439,4.8533,4.8506,4.8563,4.8667,4.8699,4.8728,4.8875,4.885,4.8893,4.897,4.9029,4.9046,4.9061,4.9112,4.913,4.8905,4.8905,4.8905,0,4.8211,4.8316,4.8316,4.8394,4.843,4.8402,4.8487,4.8519,4.8584,4.8609,4.8576,4.8705,4.8732,4.8845,4.8881,4.8906,4.8927,4.8888,4.9044,4.9059,4.9073,4.9121,4.914,4.891,4.8909,4.8909,4.8908,0,4.8388,4.8461,4.8525,4.8591,4.8635,4.8716,4.8725,4.8769,4.876,4.8772,4.8867,4.8898,4.896,4.8987,4.8978,4.9098,4.9078,4.9045,4.8985,4.9098,4.9143,4.9162,4.8917,4.8915,4.8914,4.8912,0,0,4.8563,4.8629,4.8652,4.8681,4.8734,4.8789,4.8867,4.893,4.8967,4.9012,4.9076,4.9164,4.9134,4.9168,4.9162,4.9215,4.9327,4.9174,4.9175,4.9201,4.9459,4.9483,4.9505,4.9311,4.9314,4.9317,4.9455,0,4.8702,4.8843,4.8845,4.8973,4.9039,4.9012,4.908,4.9118,4.9131,4.9186,4.9199,4.9261,4.9217,4.9237,4.9288,4.9303,4.9378,4.9293,4.9367,4.937,4.9357,4.9529,4.9555,4.9683,4.9472,4.9476,4.9478,0,4.8883,4.8937,4.9073,4.9115,4.9143,4.9204,4.9261,4.9316,4.9357,4.9362,4.94,4.9386,4.9463,4.9401,4.9505,4.9447,4.9477,4.9489,4.9493,4.9499,4.943,4.9538,4.9724,4.9743,4.9506,4.9504,4.9502,0,4.8995,4.9101,4.9196,4.9222,4.9274,4.9318,4.9341,4.9379,4.9416,4.9465,4.9489,4.9545,4.9576,4.9618,4.9618,4.9574,4.9723,4.9661,4.9727,4.9727,4.9759,4.9757,4.9952,4.9781,4.978,4.978,4.978,0,4.9149,4.9233,4.9247,4.9306,4.9398,4.9397,4.9487,4.9506,4.954,4.9598,4.9578,4.9633,4.9631,4.9686,4.9686,4.9771,4.9785,4.9789,4.9788,4.9791,4.979,4.981,4.9801,4.9785,4.9784,4.9783,4.9782,0,4.929,4.9304,4.9405,4.9447,4.9459,4.9525,4.9559,4.9613,4.9624,4.9698,4.9715,4.9732,4.9795,4.98,4.9873,4.9873,4.9976,4.9965,4.9963,4.9961,5.0026,5.0019,5.0239,5.0267,5.0079,5.0081,5.0082,0,4.9388,4.9452,4.9501,4.9541,4.9567,4.9631,4.9669,4.967,4.9711,4.9762,4.9809,4.9871,4.9921,5.0023,5.0039,5.0094,5.0084,5.0157,5.0092,5.0092,5.0084,5.008,5.0085,5.017,5.0172,5.0174,5.0175,0,4.9558,4.9562,4.962,4.9681,4.9728,4.9775,4.9819,4.9851,4.9857,4.9903,4.9969,5.0008,5.0083,5.0144,5.0198,5.0218,5.0197,5.0196,5.0213,5.0216,5.0212,5.0214,4.9996,5.019,5.0189,5.0188,5.0187,5.0186,4.968,4.9735,4.9779,4.9844,4.9877,4.9918,4.9971,4.9989,5.0045,5.0109,5.0105,5.0177,5.0214,5.0285,5.031,5.0364,5.0339,5.0365,5.0371,5.0378,5.0384,5.0204,5.0374,5.0373,5.0373,5.0373,5.0372,0,4.9848,4.9875,4.9935,4.9998,5.0049,5.0028,5.0074,5.0117,5.0182,5.022,5.027,5.0345,5.0404,5.0425,5.0481,5.0521,5.0512,5.0535,5.0532,5.0536,5.0404,5.0382,5.0541,5.0541,5.0541,5.0541,5.0541,5.0541,4.9942,5.0035,5.0043,5.015,5.0175,5.0249,5.0277,5.0314,5.0344,5.043,5.048,5.0494,5.0524,5.0583,5.0635,5.0639,5.066,5.0687,5.0687,5.0563,5.0546,5.053,5.0509,5.0692,5.0692,5.0815,5.0816,5.0817]}]]